owner,sensor,date,latitude,longitude,vertical_datum,wind_speed,wind_to_direction,wind_speed_of_gust,qcFlag 
COMPS,ioos:station:USF.COMPS:ARP:1,2016-03-01T00:00:00Z,28.4330,-82.6670,10.0,0.13,5.54,0.49,'1111122,1111122,1111122' 
COMPS,ioos:station:USF.COMPS:ARP:1,2016-03-01T00:06:00Z,28.4330,-82.6670,10.0,0.21,8.19,0.97,'1111122,1111122,1111122' 
COMPS,ioos:station:USF.COMPS:ARP:1,2016-03-01T00:12:00Z,28.4330,-82.6670,10.0,0.22,9.66,0.78,'1111122,1111122,1111122' 
COMPS,ioos:station:USF.COMPS:ARP:1,2016-03-01T00:18:00Z,28.4330,-82.6670,10.0,0.11,351.42,0.68,'1111122,1111122,1111122' 
COMPS,ioos:station:USF.COMPS:ARP:1,2016-03-01T00:24:00Z,28.4330,-82.6670,10.0,0.18,358.53,0.68,'1111122,1111122,1111122' 
COMPS,ioos:station:USF.COMPS:ARP:1,2016-03-01T00:30:00Z,28.4330,-82.6670,10.0,0.1,4.06,0.68,'1111122,1111122,1111122' 
COMPS,ioos:station:USF.COMPS:ARP:1,2016-03-01T00:36:00Z,28.4330,-82.6670,10.0,0.31,21.51,0.68,'1111122,1111122,1111122' 
COMPS,ioos:station:USF.COMPS:ARP:1,2016-03-01T00:42:00Z,28.4330,-82.6670,10.0,0.19,32.11,0.49,'1111122,1111122,1111122' 
COMPS,ioos:station:USF.COMPS:ARP:1,2016-03-01T00:48:00Z,28.4330,-82.6670,10.0,0.42,20.68,0.88,'1111122,1111122,1111122' 
COMPS,ioos:station:USF.COMPS:ARP:1,2016-03-01T00:54:00Z,28.4330,-82.6670,10.0,0.26,38.81,0.49,'1111122,1111122,1111122' 
COMPS,ioos:station:USF.COMPS:ARP:1,2016-03-01T01:00:00Z,28.4330,-82.6670,10.0,0.37,33.76,0.58,'1111122,1111122,1111122' 
COMPS,ioos:station:USF.COMPS:ARP:1,2016-03-01T01:06:00Z,28.4330,-82.6670,10.0,0.31,50.22,0.58,'1111122,1111122,1111122' 
COMPS,ioos:station:USF.COMPS:ARP:1,2016-03-01T01:12:00Z,28.4330,-82.6670,10.0,0.13,34.86,0.39,'1111122,1111122,1111122' 
COMPS,ioos:station:USF.COMPS:ARP:1,2016-03-01T01:18:00Z,28.4330,-82.6670,10.0,0.27,25.31,0.58,'1111122,1111122,1111122' 
COMPS,ioos:station:USF.COMPS:ARP:1,2016-03-01T01:24:00Z,28.4330,-82.6670,10.0,0.22,22.38,0.58,'1111122,1111122,1111122' 
COMPS,ioos:station:USF.COMPS:ARP:1,2016-03-01T01:30:00Z,28.4330,-82.6670,10.0,0.04,11.74,0.29,'1111122,1111122,1111122' 
COMPS,ioos:station:USF.COMPS:ARP:1,2016-03-01T01:36:00Z,28.4330,-82.6670,10.0,0.28,55.29,0.68,'1111122,1111122,1111122' 
COMPS,ioos:station:USF.COMPS:ARP:1,2016-03-01T01:42:00Z,28.4330,-82.6670,10.0,0.09,60.13,0.29,'1111122,1111122,1111122' 
COMPS,ioos:station:USF.COMPS:ARP:1,2016-03-01T01:48:00Z,28.4330,-82.6670,10.0,0.25,40.55,0.49,'1111122,1111122,1111122' 
COMPS,ioos:station:USF.COMPS:ARP:1,2016-03-01T01:54:00Z,28.4330,-82.6670,10.0,0.41,48.37,0.58,'1111122,1111122,1111122' 
COMPS,ioos:station:USF.COMPS:ARP:1,2016-03-01T02:00:00Z,28.4330,-82.6670,10.0,0.43,52.68,0.68,'1111122,1111122,1111122' 
COMPS,ioos:station:USF.COMPS:ARP:1,2016-03-01T02:06:00Z,28.4330,-82.6670,10.0,0.16,50.29,0.49,'1111122,1111122,1111122' 
COMPS,ioos:station:USF.COMPS:ARP:1,2016-03-01T02:12:00Z,28.4330,-82.6670,10.0,0.09,52.78,0.39,'1111122,1111122,1111122' 
COMPS,ioos:station:USF.COMPS:ARP:1,2016-03-01T02:18:00Z,28.4330,-82.6670,10.0,0.02,52.85,0.29,'1111122,1111122,1111122' 
COMPS,ioos:station:USF.COMPS:ARP:1,2016-03-01T02:24:00Z,28.4330,-82.6670,10.0,0.03,8.95,0.29,'1111122,1111122,1111122' 
COMPS,ioos:station:USF.COMPS:ARP:1,2016-03-01T02:30:00Z,28.4330,-82.6670,10.0,0.33,45.48,0.58,'1111122,1111122,1111122' 
COMPS,ioos:station:USF.COMPS:ARP:1,2016-03-01T02:36:00Z,28.4330,-82.6670,10.0,0.29,59.86,0.58,'1111122,1111122,1111122' 
COMPS,ioos:station:USF.COMPS:ARP:1,2016-03-01T02:42:00Z,28.4330,-82.6670,10.0,0.3,58.57,0.58,'1111122,1111122,1111122' 
COMPS,ioos:station:USF.COMPS:ARP:1,2016-03-01T02:48:00Z,28.4330,-82.6670,10.0,0.29,37.53,0.58,'1111122,1111122,1111122' 
COMPS,ioos:station:USF.COMPS:ARP:1,2016-03-01T02:54:00Z,28.4330,-82.6670,10.0,0.34,33.77,0.97,'1111122,1111122,1111122' 
COMPS,ioos:station:USF.COMPS:ARP:1,2016-03-01T03:00:00Z,28.4330,-82.6670,10.0,0.18,5.17,0.88,'1111122,1111122,1111122' 
COMPS,ioos:station:USF.COMPS:ARP:1,2016-03-01T03:06:00Z,28.4330,-82.6670,10.0,0.09,0.49,0.58,'1111122,1111122,1111122' 
COMPS,ioos:station:USF.COMPS:ARP:1,2016-03-01T03:12:00Z,28.4330,-82.6670,10.0,0.11,3.47,0.78,'1111122,1111122,1111122' 
COMPS,ioos:station:USF.COMPS:ARP:1,2016-03-01T03:18:00Z,28.4330,-82.6670,10.0,0.19,17.4,0.78,'1111122,1111122,1111122' 
COMPS,ioos:station:USF.COMPS:ARP:1,2016-03-01T03:24:00Z,28.4330,-82.6670,10.0,0.35,52.48,0.68,'1111122,1111122,1111122' 
COMPS,ioos:station:USF.COMPS:ARP:1,2016-03-01T03:30:00Z,28.4330,-82.6670,10.0,0.57,29.15,1.17,'1111122,1111122,1111122' 
COMPS,ioos:station:USF.COMPS:ARP:1,2016-03-01T03:36:00Z,28.4330,-82.6670,10.0,0.45,21.39,0.97,'1111122,1111122,1111122' 
COMPS,ioos:station:USF.COMPS:ARP:1,2016-03-01T03:42:00Z,28.4330,-82.6670,10.0,0.25,24.11,1.07,'1111122,1111122,1111122' 
COMPS,ioos:station:USF.COMPS:ARP:1,2016-03-01T03:48:00Z,28.4330,-82.6670,10.0,0.28,17.17,0.88,'1111122,1111122,1111122' 
COMPS,ioos:station:USF.COMPS:ARP:1,2016-03-01T03:54:00Z,28.4330,-82.6670,10.0,0.24,27.08,1.07,'1111122,1111122,1111122' 
COMPS,ioos:station:USF.COMPS:ARP:1,2016-03-01T04:00:00Z,28.4330,-82.6670,10.0,0.3,25.05,0.97,'1111122,1111122,1111122' 
COMPS,ioos:station:USF.COMPS:ARP:1,2016-03-01T04:06:00Z,28.4330,-82.6670,10.0,0.47,17.53,0.97,'1111122,1111122,1111122' 
COMPS,ioos:station:USF.COMPS:ARP:1,2016-03-01T04:12:00Z,28.4330,-82.6670,10.0,0.55,25.41,1.27,'1111122,1111122,1111122' 
COMPS,ioos:station:USF.COMPS:ARP:1,2016-03-01T04:18:00Z,28.4330,-82.6670,10.0,0.31,5.76,0.88,'1111122,1111122,1111122' 
COMPS,ioos:station:USF.COMPS:ARP:1,2016-03-01T04:24:00Z,28.4330,-82.6670,10.0,0.33,14.88,0.78,'1111122,1111122,1111122' 
COMPS,ioos:station:USF.COMPS:ARP:1,2016-03-01T04:30:00Z,28.4330,-82.6670,10.0,0.43,17.72,1.07,'1111122,1111122,1111122' 
COMPS,ioos:station:USF.COMPS:ARP:1,2016-03-01T04:36:00Z,28.4330,-82.6670,10.0,0.24,3.01,0.97,'1111122,1111122,1111122' 
COMPS,ioos:station:USF.COMPS:ARP:1,2016-03-01T04:42:00Z,28.4330,-82.6670,10.0,0.26,10.15,0.97,'1111122,1111122,1111122' 
COMPS,ioos:station:USF.COMPS:ARP:1,2016-03-01T04:48:00Z,28.4330,-82.6670,10.0,0.44,46.64,0.78,'1111122,1111122,1111122' 
COMPS,ioos:station:USF.COMPS:ARP:1,2016-03-01T04:54:00Z,28.4330,-82.6670,10.0,0.4,73.14,0.97,'1111122,1111122,1111122' 
COMPS,ioos:station:USF.COMPS:ARP:1,2016-03-01T05:00:00Z,28.4330,-82.6670,10.0,0.19,85.77,0.97,'1111122,1111122,1111122' 
COMPS,ioos:station:USF.COMPS:ARP:1,2016-03-01T05:06:00Z,28.4330,-82.6670,10.0,0.21,120.05,0.68,'1111122,1111122,1111122' 
COMPS,ioos:station:USF.COMPS:ARP:1,2016-03-01T05:12:00Z,28.4330,-82.6670,10.0,0.41,113.33,0.78,'1111122,1111122,1111122' 
COMPS,ioos:station:USF.COMPS:ARP:1,2016-03-01T05:18:00Z,28.4330,-82.6670,10.0,0.25,106.28,0.49,'1111122,1111122,1111122' 
COMPS,ioos:station:USF.COMPS:ARP:1,2016-03-01T05:24:00Z,28.4330,-82.6670,10.0,0.61,83.57,0.78,'1111122,1111122,1111122' 
COMPS,ioos:station:USF.COMPS:ARP:1,2016-03-01T05:30:00Z,28.4330,-82.6670,10.0,0.63,85.19,0.78,'1111122,1111122,1111122' 
COMPS,ioos:station:USF.COMPS:ARP:1,2016-03-01T05:36:00Z,28.4330,-82.6670,10.0,0.47,84.0,0.78,'1111122,1111122,1111122' 
COMPS,ioos:station:USF.COMPS:ARP:1,2016-03-01T05:42:00Z,28.4330,-82.6670,10.0,0.62,85.99,0.78,'1111122,1111122,1111122' 
COMPS,ioos:station:USF.COMPS:ARP:1,2016-03-01T05:48:00Z,28.4330,-82.6670,10.0,0.87,90.2,1.07,'1111122,1111122,1111122' 
COMPS,ioos:station:USF.COMPS:ARP:1,2016-03-01T05:54:00Z,28.4330,-82.6670,10.0,0.88,92.35,1.07,'1111122,1111122,1111122' 
COMPS,ioos:station:USF.COMPS:ARP:1,2016-03-01T06:00:00Z,28.4330,-82.6670,10.0,1.04,104.13,1.17,'1111122,1111122,1111122' 
COMPS,ioos:station:USF.COMPS:ARP:1,2016-03-01T06:06:00Z,28.4330,-82.6670,10.0,0.72,105.19,0.97,'1111122,1111122,1111122' 
COMPS,ioos:station:USF.COMPS:ARP:1,2016-03-01T06:12:00Z,28.4330,-82.6670,10.0,1.17,107.72,1.66,'1111122,1111122,1111122' 
COMPS,ioos:station:USF.COMPS:ARP:1,2016-03-01T06:18:00Z,28.4330,-82.6670,10.0,1.14,100.7,1.46,'1111122,1111122,1111122' 
COMPS,ioos:station:USF.COMPS:ARP:1,2016-03-01T06:24:00Z,28.4330,-82.6670,10.0,1.1,103.25,1.56,'1111122,1111122,1111122' 
COMPS,ioos:station:USF.COMPS:ARP:1,2016-03-01T06:30:00Z,28.4330,-82.6670,10.0,1.11,104.2,1.46,'1111122,1111122,1111122' 
COMPS,ioos:station:USF.COMPS:ARP:1,2016-03-01T06:36:00Z,28.4330,-82.6670,10.0,1.06,101.92,1.37,'1111122,1111122,1111122' 
COMPS,ioos:station:USF.COMPS:ARP:1,2016-03-01T06:42:00Z,28.4330,-82.6670,10.0,1.17,104.12,1.86,'1111122,1111122,1111122' 
COMPS,ioos:station:USF.COMPS:ARP:1,2016-03-01T06:48:00Z,28.4330,-82.6670,10.0,1.1,104.45,1.66,'1111122,1111122,1111122' 
COMPS,ioos:station:USF.COMPS:ARP:1,2016-03-01T06:54:00Z,28.4330,-82.6670,10.0,1.08,91.48,1.56,'1111122,1111122,1111122' 
COMPS,ioos:station:USF.COMPS:ARP:1,2016-03-01T07:00:00Z,28.4330,-82.6670,10.0,1.25,96.35,1.46,'1111122,1111122,1111122' 
COMPS,ioos:station:USF.COMPS:ARP:1,2016-03-01T07:06:00Z,28.4330,-82.6670,10.0,1.4,110.55,1.95,'1111122,1111122,1111122' 
COMPS,ioos:station:USF.COMPS:ARP:1,2016-03-01T07:12:00Z,28.4330,-82.6670,10.0,1.69,115.26,2.35,'1111122,1111122,1111122' 
COMPS,ioos:station:USF.COMPS:ARP:1,2016-03-01T07:18:00Z,28.4330,-82.6670,10.0,1.7,113.36,2.15,'1111122,1111122,1111122' 
COMPS,ioos:station:USF.COMPS:ARP:1,2016-03-01T07:24:00Z,28.4330,-82.6670,10.0,1.52,104.83,1.95,'1111122,1111122,1111122' 
COMPS,ioos:station:USF.COMPS:ARP:1,2016-03-01T07:30:00Z,28.4330,-82.6670,10.0,1.76,107.61,2.25,'1111122,1111122,1111122' 
COMPS,ioos:station:USF.COMPS:ARP:1,2016-03-01T07:36:00Z,28.4330,-82.6670,10.0,1.87,110.18,2.93,'1111122,1111122,1111122' 
COMPS,ioos:station:USF.COMPS:ARP:1,2016-03-01T07:42:00Z,28.4330,-82.6670,10.0,2.07,109.76,3.62,'1111122,1111122,1111122' 
COMPS,ioos:station:USF.COMPS:ARP:1,2016-03-01T07:48:00Z,28.4330,-82.6670,10.0,2.12,102.85,3.33,'1111122,1111122,1111122' 
COMPS,ioos:station:USF.COMPS:ARP:1,2016-03-01T07:54:00Z,28.4330,-82.6670,10.0,2.18,103.82,3.03,'1111122,1111122,1111122' 
COMPS,ioos:station:USF.COMPS:ARP:1,2016-03-01T08:00:00Z,28.4330,-82.6670,10.0,2.11,110.01,3.33,'1111122,1111122,1111122' 
COMPS,ioos:station:USF.COMPS:ARP:1,2016-03-01T08:06:00Z,28.4330,-82.6670,10.0,1.88,96.44,3.13,'1111122,1111122,1111122' 
COMPS,ioos:station:USF.COMPS:ARP:1,2016-03-01T08:12:00Z,28.4330,-82.6670,10.0,1.95,103.99,2.84,'1111122,1111122,1111122' 
COMPS,ioos:station:USF.COMPS:ARP:1,2016-03-01T08:18:00Z,28.4330,-82.6670,10.0,2.1,107.11,2.74,'1111122,1111122,1111122' 
COMPS,ioos:station:USF.COMPS:ARP:1,2016-03-01T08:24:00Z,28.4330,-82.6670,10.0,1.81,101.96,2.45,'1111122,1111122,1111122' 
COMPS,ioos:station:USF.COMPS:ARP:1,2016-03-01T08:30:00Z,28.4330,-82.6670,10.0,1.85,99.08,2.25,'1111122,1111122,1111122' 
COMPS,ioos:station:USF.COMPS:ARP:1,2016-03-01T08:36:00Z,28.4330,-82.6670,10.0,2.0,104.55,2.84,'1111122,1111122,1111122' 
COMPS,ioos:station:USF.COMPS:ARP:1,2016-03-01T08:42:00Z,28.4330,-82.6670,10.0,2.32,106.89,2.93,'1111122,1111122,1111122' 
COMPS,ioos:station:USF.COMPS:ARP:1,2016-03-01T08:48:00Z,28.4330,-82.6670,10.0,1.93,105.47,2.93,'1111122,1111122,1111122' 
COMPS,ioos:station:USF.COMPS:ARP:1,2016-03-01T08:54:00Z,28.4330,-82.6670,10.0,2.21,111.15,3.82,'1111122,1111122,1111122' 
COMPS,ioos:station:USF.COMPS:ARP:1,2016-03-01T09:00:00Z,28.4330,-82.6670,10.0,2.0,106.62,2.84,'1111122,1111122,1111122' 
COMPS,ioos:station:USF.COMPS:ARP:1,2016-03-01T09:06:00Z,28.4330,-82.6670,10.0,1.79,97.38,2.84,'1111122,1111122,1111122' 
COMPS,ioos:station:USF.COMPS:ARP:1,2016-03-01T09:12:00Z,28.4330,-82.6670,10.0,1.43,92.6,2.35,'1111122,1111122,1111122' 
COMPS,ioos:station:USF.COMPS:ARP:1,2016-03-01T09:18:00Z,28.4330,-82.6670,10.0,1.3,99.7,1.95,'1111122,1111122,1111122' 
COMPS,ioos:station:USF.COMPS:ARP:1,2016-03-01T09:24:00Z,28.4330,-82.6670,10.0,1.65,104.28,2.54,'1111122,1111122,1111122' 
COMPS,ioos:station:USF.COMPS:ARP:1,2016-03-01T09:30:00Z,28.4330,-82.6670,10.0,2.03,107.1,2.64,'1111122,1111122,1111122' 
COMPS,ioos:station:USF.COMPS:ARP:1,2016-03-01T09:36:00Z,28.4330,-82.6670,10.0,2.09,111.41,2.93,'1111122,1111122,1111122' 
COMPS,ioos:station:USF.COMPS:ARP:1,2016-03-01T09:42:00Z,28.4330,-82.6670,10.0,2.01,106.2,2.93,'1111122,1111122,1111122' 
COMPS,ioos:station:USF.COMPS:ARP:1,2016-03-01T09:48:00Z,28.4330,-82.6670,10.0,1.86,104.51,2.93,'1111122,1111122,1111122' 
COMPS,ioos:station:USF.COMPS:ARP:1,2016-03-01T09:54:00Z,28.4330,-82.6670,10.0,1.54,91.38,1.95,'1111122,1111122,1111122' 
COMPS,ioos:station:USF.COMPS:ARP:1,2016-03-01T10:00:00Z,28.4330,-82.6670,10.0,1.26,96.36,1.76,'1111122,1111122,1111122' 
COMPS,ioos:station:USF.COMPS:ARP:1,2016-03-01T10:06:00Z,28.4330,-82.6670,10.0,1.57,107.41,2.64,'1111122,1111122,1111122' 
COMPS,ioos:station:USF.COMPS:ARP:1,2016-03-01T10:12:00Z,28.4330,-82.6670,10.0,1.7,102.89,2.84,'1111122,1111122,1111122' 
COMPS,ioos:station:USF.COMPS:ARP:1,2016-03-01T10:18:00Z,28.4330,-82.6670,10.0,1.81,108.32,3.03,'1111122,1111122,1111122' 
COMPS,ioos:station:USF.COMPS:ARP:1,2016-03-01T10:24:00Z,28.4330,-82.6670,10.0,1.58,101.82,2.35,'1111122,1111122,1111122' 
COMPS,ioos:station:USF.COMPS:ARP:1,2016-03-01T10:30:00Z,28.4330,-82.6670,10.0,1.45,101.98,2.05,'1111122,1111122,1111122' 
COMPS,ioos:station:USF.COMPS:ARP:1,2016-03-01T10:36:00Z,28.4330,-82.6670,10.0,1.53,106.95,2.15,'1111122,1111122,1111122' 
COMPS,ioos:station:USF.COMPS:ARP:1,2016-03-01T10:42:00Z,28.4330,-82.6670,10.0,1.89,109.18,2.54,'1111122,1111122,1111122' 
COMPS,ioos:station:USF.COMPS:ARP:1,2016-03-01T10:48:00Z,28.4330,-82.6670,10.0,1.34,101.73,1.86,'1111122,1111122,1111122' 
COMPS,ioos:station:USF.COMPS:ARP:1,2016-03-01T10:54:00Z,28.4330,-82.6670,10.0,1.82,109.5,2.74,'1111122,1111122,1111122' 
COMPS,ioos:station:USF.COMPS:ARP:1,2016-03-01T11:00:00Z,28.4330,-82.6670,10.0,2.01,111.73,3.13,'1111122,1111122,1111122' 
COMPS,ioos:station:USF.COMPS:ARP:1,2016-03-01T11:06:00Z,28.4330,-82.6670,10.0,1.63,102.85,2.25,'1111122,1111122,1111122' 
COMPS,ioos:station:USF.COMPS:ARP:1,2016-03-01T11:12:00Z,28.4330,-82.6670,10.0,1.76,104.93,2.45,'1111122,1111122,1111122' 
COMPS,ioos:station:USF.COMPS:ARP:1,2016-03-01T11:18:00Z,28.4330,-82.6670,10.0,1.71,95.49,2.45,'1111122,1111122,1111122' 
COMPS,ioos:station:USF.COMPS:ARP:1,2016-03-01T11:24:00Z,28.4330,-82.6670,10.0,1.61,96.57,2.54,'1111122,1111122,1111122' 
COMPS,ioos:station:USF.COMPS:ARP:1,2016-03-01T11:30:00Z,28.4330,-82.6670,10.0,1.39,96.61,2.25,'1111122,1111122,1111122' 
COMPS,ioos:station:USF.COMPS:ARP:1,2016-03-01T11:36:00Z,28.4330,-82.6670,10.0,1.48,93.42,2.05,'1111122,1111122,1111122' 
COMPS,ioos:station:USF.COMPS:ARP:1,2016-03-01T11:42:00Z,28.4330,-82.6670,10.0,1.52,86.44,2.35,'1111122,1111122,1111122' 
COMPS,ioos:station:USF.COMPS:ARP:1,2016-03-01T11:48:00Z,28.4330,-82.6670,10.0,1.36,97.99,2.05,'1111122,1111122,1111122' 
COMPS,ioos:station:USF.COMPS:ARP:1,2016-03-01T11:54:00Z,28.4330,-82.6670,10.0,1.69,94.69,2.25,'1111122,1111122,1111122' 
COMPS,ioos:station:USF.COMPS:ARP:1,2016-03-01T12:00:00Z,28.4330,-82.6670,10.0,1.54,95.45,2.05,'1111122,1111122,1111122' 
COMPS,ioos:station:USF.COMPS:ARP:1,2016-03-01T12:06:00Z,28.4330,-82.6670,10.0,1.36,95.09,2.25,'1111122,1111122,1111122' 
COMPS,ioos:station:USF.COMPS:ARP:1,2016-03-01T12:12:00Z,28.4330,-82.6670,10.0,1.97,105.5,2.93,'1111122,1111122,1111122' 
COMPS,ioos:station:USF.COMPS:ARP:1,2016-03-01T12:18:00Z,28.4330,-82.6670,10.0,1.73,106.06,2.35,'1111122,1111122,1111122' 
COMPS,ioos:station:USF.COMPS:ARP:1,2016-03-01T12:24:00Z,28.4330,-82.6670,10.0,1.78,102.44,3.13,'1111122,1111122,1111122' 
COMPS,ioos:station:USF.COMPS:ARP:1,2016-03-01T12:30:00Z,28.4330,-82.6670,10.0,1.61,95.44,2.15,'1111122,1111122,1111122' 
COMPS,ioos:station:USF.COMPS:ARP:1,2016-03-01T12:36:00Z,28.4330,-82.6670,10.0,1.73,98.47,2.35,'1111122,1111122,1111122' 
COMPS,ioos:station:USF.COMPS:ARP:1,2016-03-01T12:42:00Z,28.4330,-82.6670,10.0,1.69,105.86,2.84,'1111122,1111122,1111122' 
COMPS,ioos:station:USF.COMPS:ARP:1,2016-03-01T12:48:00Z,28.4330,-82.6670,10.0,1.95,101.97,2.74,'1111122,1111122,1111122' 
COMPS,ioos:station:USF.COMPS:ARP:1,2016-03-01T12:54:00Z,28.4330,-82.6670,10.0,1.87,97.57,2.84,'1111122,1111122,1111122' 
COMPS,ioos:station:USF.COMPS:ARP:1,2016-03-01T13:00:00Z,28.4330,-82.6670,10.0,1.91,102.63,3.03,'1111122,1111122,1111122' 
COMPS,ioos:station:USF.COMPS:ARP:1,2016-03-01T13:06:00Z,28.4330,-82.6670,10.0,1.88,101.8,2.64,'1111122,1111122,1111122' 
COMPS,ioos:station:USF.COMPS:ARP:1,2016-03-01T13:12:00Z,28.4330,-82.6670,10.0,2.07,102.73,2.74,'1111122,1111122,1111122' 
COMPS,ioos:station:USF.COMPS:ARP:1,2016-03-01T13:18:00Z,28.4330,-82.6670,10.0,1.83,100.57,2.45,'1111122,1111122,1111122' 
COMPS,ioos:station:USF.COMPS:ARP:1,2016-03-01T13:24:00Z,28.4330,-82.6670,10.0,2.27,108.23,4.01,'1111122,1111122,1111122' 
COMPS,ioos:station:USF.COMPS:ARP:1,2016-03-01T13:30:00Z,28.4330,-82.6670,10.0,2.54,107.67,3.62,'1111122,1111122,1111122' 
COMPS,ioos:station:USF.COMPS:ARP:1,2016-03-01T13:36:00Z,28.4330,-82.6670,10.0,2.03,101.4,3.13,'1111122,1111122,1111122' 
COMPS,ioos:station:USF.COMPS:ARP:1,2016-03-01T13:42:00Z,28.4330,-82.6670,10.0,2.11,103.33,3.72,'1111122,1111122,1111122' 
COMPS,ioos:station:USF.COMPS:ARP:1,2016-03-01T13:48:00Z,28.4330,-82.6670,10.0,2.21,105.08,3.52,'1111122,1111122,1111122' 
COMPS,ioos:station:USF.COMPS:ARP:1,2016-03-01T13:54:00Z,28.4330,-82.6670,10.0,2.28,100.05,3.33,'1111122,1111122,1111122' 
COMPS,ioos:station:USF.COMPS:ARP:1,2016-03-01T14:00:00Z,28.4330,-82.6670,10.0,1.67,97.39,2.93,'1111122,1111122,1111122' 
COMPS,ioos:station:USF.COMPS:ARP:1,2016-03-01T14:06:00Z,28.4330,-82.6670,10.0,1.76,96.75,2.64,'1111122,1111122,1111122' 
COMPS,ioos:station:USF.COMPS:ARP:1,2016-03-01T14:12:00Z,28.4330,-82.6670,10.0,1.7,91.59,2.74,'1111122,1111122,1111122' 
COMPS,ioos:station:USF.COMPS:ARP:1,2016-03-01T14:18:00Z,28.4330,-82.6670,10.0,1.82,107.67,3.03,'1111122,1111122,1111122' 
COMPS,ioos:station:USF.COMPS:ARP:1,2016-03-01T14:24:00Z,28.4330,-82.6670,10.0,1.6,110.02,3.03,'1111122,1111122,1111122' 
COMPS,ioos:station:USF.COMPS:ARP:1,2016-03-01T14:30:00Z,28.4330,-82.6670,10.0,2.37,104.48,3.42,'1111122,1111122,1111122' 
COMPS,ioos:station:USF.COMPS:ARP:1,2016-03-01T14:36:00Z,28.4330,-82.6670,10.0,1.24,101.19,2.05,'1111122,1111122,1111122' 
COMPS,ioos:station:USF.COMPS:ARP:1,2016-03-01T14:42:00Z,28.4330,-82.6670,10.0,1.36,95.27,2.35,'1111122,1111122,1111122' 
COMPS,ioos:station:USF.COMPS:ARP:1,2016-03-01T14:48:00Z,28.4330,-82.6670,10.0,1.79,79.0,2.84,'1111122,1111122,1111122' 
COMPS,ioos:station:USF.COMPS:ARP:1,2016-03-01T14:54:00Z,28.4330,-82.6670,10.0,1.48,84.73,2.54,'1111122,1111122,1111122' 
COMPS,ioos:station:USF.COMPS:ARP:1,2016-03-01T15:00:00Z,28.4330,-82.6670,10.0,1.38,72.47,1.95,'1111122,1111122,1111122' 
COMPS,ioos:station:USF.COMPS:ARP:1,2016-03-01T15:06:00Z,28.4330,-82.6670,10.0,1.42,75.96,2.35,'1111122,1111122,1111122' 
COMPS,ioos:station:USF.COMPS:ARP:1,2016-03-01T15:12:00Z,28.4330,-82.6670,10.0,1.6,67.77,2.64,'1111122,1111122,1111122' 
COMPS,ioos:station:USF.COMPS:ARP:1,2016-03-01T15:18:00Z,28.4330,-82.6670,10.0,1.94,66.06,3.03,'1111122,1111122,1111122' 
COMPS,ioos:station:USF.COMPS:ARP:1,2016-03-01T15:24:00Z,28.4330,-82.6670,10.0,1.68,60.32,2.93,'1111122,1111122,1111122' 
COMPS,ioos:station:USF.COMPS:ARP:1,2016-03-01T15:30:00Z,28.4330,-82.6670,10.0,2.01,71.45,3.62,'1111122,1111122,1111122' 
COMPS,ioos:station:USF.COMPS:ARP:1,2016-03-01T15:36:00Z,28.4330,-82.6670,10.0,1.92,61.11,3.52,'1111122,1111122,1111122' 
COMPS,ioos:station:USF.COMPS:ARP:1,2016-03-01T15:42:00Z,28.4330,-82.6670,10.0,1.75,74.97,3.03,'1111122,1111122,1111122' 
COMPS,ioos:station:USF.COMPS:ARP:1,2016-03-01T15:48:00Z,28.4330,-82.6670,10.0,1.47,103.95,2.45,'1111122,1111122,1111122' 
COMPS,ioos:station:USF.COMPS:ARP:1,2016-03-01T15:54:00Z,28.4330,-82.6670,10.0,0.62,171.79,2.25,'1111122,1111122,1111122' 
COMPS,ioos:station:USF.COMPS:ARP:1,2016-03-01T16:00:00Z,28.4330,-82.6670,10.0,1.08,16.55,3.42,'1111122,1111122,1111122' 
COMPS,ioos:station:USF.COMPS:ARP:1,2016-03-01T16:06:00Z,28.4330,-82.6670,10.0,3.08,306.71,3.82,'1111122,1111122,1111122' 
COMPS,ioos:station:USF.COMPS:ARP:1,2016-03-01T16:12:00Z,28.4330,-82.6670,10.0,3.06,312.8,3.91,'1111122,1111122,1111122' 
COMPS,ioos:station:USF.COMPS:ARP:1,2016-03-01T16:18:00Z,28.4330,-82.6670,10.0,1.52,317.75,2.54,'1111122,1111122,1111122' 
COMPS,ioos:station:USF.COMPS:ARP:1,2016-03-01T16:24:00Z,28.4330,-82.6670,10.0,2.16,310.15,3.52,'1111122,1111122,1111122' 
COMPS,ioos:station:USF.COMPS:ARP:1,2016-03-01T16:30:00Z,28.4330,-82.6670,10.0,2.4,312.26,3.72,'1111122,1111122,1111122' 
COMPS,ioos:station:USF.COMPS:ARP:1,2016-03-01T16:36:00Z,28.4330,-82.6670,10.0,1.43,321.89,2.54,'1111122,1111122,1111122' 
COMPS,ioos:station:USF.COMPS:ARP:1,2016-03-01T16:42:00Z,28.4330,-82.6670,10.0,1.95,314.19,3.13,'1111122,1111122,1111122' 
COMPS,ioos:station:USF.COMPS:ARP:1,2016-03-01T16:48:00Z,28.4330,-82.6670,10.0,2.16,319.38,3.72,'1111122,1111122,1111122' 
COMPS,ioos:station:USF.COMPS:ARP:1,2016-03-01T16:54:00Z,28.4330,-82.6670,10.0,2.29,306.19,3.62,'1111122,1111122,1111122' 
COMPS,ioos:station:USF.COMPS:ARP:1,2016-03-01T17:00:00Z,28.4330,-82.6670,10.0,2.61,312.28,4.11,'1111122,1111122,1111122' 
COMPS,ioos:station:USF.COMPS:ARP:1,2016-03-01T17:06:00Z,28.4330,-82.6670,10.0,3.24,306.21,4.41,'1111122,1111122,1111122' 
COMPS,ioos:station:USF.COMPS:ARP:1,2016-03-01T17:12:00Z,28.4330,-82.6670,10.0,2.25,303.96,3.42,'1111122,1111122,1111122' 
COMPS,ioos:station:USF.COMPS:ARP:1,2016-03-01T17:18:00Z,28.4330,-82.6670,10.0,2.61,310.08,3.72,'1111122,1111122,1111122' 
COMPS,ioos:station:USF.COMPS:ARP:1,2016-03-01T17:24:00Z,28.4330,-82.6670,10.0,1.66,308.0,2.74,'1111122,1111122,1111122' 
COMPS,ioos:station:USF.COMPS:ARP:1,2016-03-01T17:30:00Z,28.4330,-82.6670,10.0,2.66,306.38,3.62,'1111122,1111122,1111122' 
COMPS,ioos:station:USF.COMPS:ARP:1,2016-03-01T17:36:00Z,28.4330,-82.6670,10.0,2.64,307.37,3.82,'1111122,1111122,1111122' 
COMPS,ioos:station:USF.COMPS:ARP:1,2016-03-01T17:42:00Z,28.4330,-82.6670,10.0,2.74,306.24,3.52,'1111122,1111122,1111122' 
COMPS,ioos:station:USF.COMPS:ARP:1,2016-03-01T17:48:00Z,28.4330,-82.6670,10.0,2.18,311.76,3.82,'1111122,1111122,1111122' 
COMPS,ioos:station:USF.COMPS:ARP:1,2016-03-01T17:54:00Z,28.4330,-82.6670,10.0,2.37,309.36,3.91,'1111122,1111122,1111122' 
COMPS,ioos:station:USF.COMPS:ARP:1,2016-03-01T18:00:00Z,28.4330,-82.6670,10.0,2.19,317.1,3.82,'1111122,1111122,1111122' 
COMPS,ioos:station:USF.COMPS:ARP:1,2016-03-01T18:06:00Z,28.4330,-82.6670,10.0,2.38,317.37,3.52,'1111122,1111122,1111122' 
COMPS,ioos:station:USF.COMPS:ARP:1,2016-03-01T18:12:00Z,28.4330,-82.6670,10.0,3.04,312.11,4.8,'1111122,1111122,1111122' 
COMPS,ioos:station:USF.COMPS:ARP:1,2016-03-01T18:18:00Z,28.4330,-82.6670,10.0,2.23,312.96,4.01,'1111122,1111122,1111122' 
COMPS,ioos:station:USF.COMPS:ARP:1,2016-03-01T18:24:00Z,28.4330,-82.6670,10.0,2.99,306.11,4.6,'1111122,1111122,1111122' 
COMPS,ioos:station:USF.COMPS:ARP:1,2016-03-01T18:30:00Z,28.4330,-82.6670,10.0,3.08,312.23,4.41,'1111122,1111122,1111122' 
COMPS,ioos:station:USF.COMPS:ARP:1,2016-03-01T18:36:00Z,28.4330,-82.6670,10.0,3.54,309.59,4.5,'1111122,1111122,1111122' 
COMPS,ioos:station:USF.COMPS:ARP:1,2016-03-01T18:42:00Z,28.4330,-82.6670,10.0,3.29,307.36,4.6,'1111122,1111122,1111122' 
COMPS,ioos:station:USF.COMPS:ARP:1,2016-03-01T18:48:00Z,28.4330,-82.6670,10.0,2.73,305.67,4.01,'1111122,1111122,1111122' 
COMPS,ioos:station:USF.COMPS:ARP:1,2016-03-01T18:54:00Z,28.4330,-82.6670,10.0,3.24,305.45,4.99,'1111122,1111122,1111122' 
COMPS,ioos:station:USF.COMPS:ARP:1,2016-03-01T19:00:00Z,28.4330,-82.6670,10.0,2.77,309.07,4.31,'1111122,1111122,1111122' 
COMPS,ioos:station:USF.COMPS:ARP:1,2016-03-01T19:06:00Z,28.4330,-82.6670,10.0,2.64,310.42,4.21,'1111122,1111122,1111122' 
COMPS,ioos:station:USF.COMPS:ARP:1,2016-03-01T19:12:00Z,28.4330,-82.6670,10.0,2.58,308.13,3.72,'1111122,1111122,1111122' 
COMPS,ioos:station:USF.COMPS:ARP:1,2016-03-01T19:18:00Z,28.4330,-82.6670,10.0,2.49,305.9,3.33,'1111122,1111122,1111122' 
COMPS,ioos:station:USF.COMPS:ARP:1,2016-03-01T19:24:00Z,28.4330,-82.6670,10.0,2.43,306.8,3.42,'1111122,1111122,1111122' 
COMPS,ioos:station:USF.COMPS:ARP:1,2016-03-01T19:30:00Z,28.4330,-82.6670,10.0,2.61,305.44,3.62,'1111122,1111122,1111122' 